Weather in Magas

Russia / Republic of Ingushetia     43°10′00″N   44°48′17″E
temp.,
°C
wind,
m/s
gust,
m/s
humid.,
%
clouds,
%
prec.,
mm/h
press.,
hPa
HPBL,
m
14 may, fri
fri1400:00+14se11824 0.0 101411
03:00+13se11794 0.0 101411
06:00+15ese117018 0.0 101414
09:00+22nne115331 0.0 1013302
12:00+25ne44510 0.0 1013587
15:00+26ene34521 0.0 1012787
18:00+23ene35710 0.0 1012106
21:00+18ssw11782 0.0 101211
15 may, sat
sat1500:00+16s22730 0.0 101212
03:00+16s22610 0.0 101212
06:00+17sw22665 0.0 101329
09:00+23w22503 0.0 1013317
12:00+27n11465 0.0 10121144
15:00+27ne215118 0.0 10121576
18:00+23ssw2273100 1.4 101347
21:00+17s2274100 2.4 101316
16 may, sun
sun1600:00+16s227195 0.0 101211
03:00+15sse227060 0.0 101111
06:00+17s117133 0.0 101121
09:00+23nne11524 0.0 1009406
12:00+26ene55515 0.0 1008751
15:00+26ene44510 0.0 10071003
18:00+24nne22660 0.0 100644
21:00+19s226623 0.0 100715
17 may, mon
mon1700:00+16s334868 0.0 100627
03:00+15sse224114 0.0 100619
06:00+17sse225320 0.0 100618
09:00+25ene22405 0.0 1005334
12:00+27ne44440 0.0 1005495
15:00+27ene33433 0.0 1004788
18:00+24nnw36675 0.0 1005126
21:00+19wsw3680100 0.8 100896
18 may, tue
tue1800:00+16wsw4588100 0.0 1009102
03:00+15wsw3486100 0.0 100964
06:00+16w4884100 0.1 1011499
09:00+18w578091 0.8 1012864
12:00+19wnw5677100 1.1 1012974
15:00+17nw568396 4.9 1014724
18:00+17wsw3684100 1.2 1015282
21:00+14sw2390100 1.3 101539